カタログに戻る

STARLINK-4504

運用中通信VLEO
NORAD 53555·PAYLOAD·🇺🇸 United States

打ち上げ Aug 19, 2022 から Cape Canaveral Space Force Station

Loading…

次のパス (今後24時間)

TLE

最新Source: CelesTrak SupGP

元期: Sep 15, 2026, 02:10 UTC

1 53555C 22101AE  26258.09076389  .00018157  00000+0  11386-2 0  2584
2 53555  53.1594 293.2371 0001209  87.2205 132.0905 15.08827786    18

AllMySatでSTARLINK-4504をリアルタイム追跡

Download on the App Store